Wind_Speed
71 70 75 70 64 63 58 53 52 48 51 55 47 46 45 44 34 31 26 29 25 25 23 23 25 26 27 29 31 29 29 35 31 30 33 29 29 36 36 32 31 34 40 47
76 78 80 75 67 63 62 60 58 52 54 54 55 55 51 49 46 37 32 28 28 30 29 26 27 28 29 33 34 37 38 38 40 43 37 33 32 40 41 38 48 53 59 54
79 88 84 78 73 73 69 65 64 59 57 60 61 62 61 57 54 46 34 30 31 34 35 32 31 34 35 36 39 39 43 45 46 50 54 47 42 45 47 45 50 53 51 42
77 86 89 73 76 78 78 74 72 65 67 70 69 67 66 65 62 55 48 40 36 38 41 37 38 42 39 40 42 40 47 51 53 55 58 56 59 53 49 47 51 54 51 54
76 81 79 75 77 84 87 81 80 75 70 71 71 74 71 69 71 57 55 48 42 41 40 43 43 48 47 45 43 39 48 48 47 55 55 60 61 59 51 53 61 62 66 75
81 79 68 64 76 88 95 83 79 80 77 76 74 74 71 70 72 60 67 55 44 43 44 45 45 49 55 52 47 46 45 52 58 55 64 62 55 56 58 68 68 74 73 72
83 85 64 61 72 89 96 80 87 89 83 82 81 75 71 73 72 74 68 61 52 47 47 48 51 53 56 53 52 48 50 60 47 40 73 69 54 63 64 67 71 75 72 73
81 80 68 70 73 84 83 84 85 90 88 84 82 73 72 74 75 75 77 64 61 54 53 55 57 55 56 54 52 53 55 49 38 45 53 58 59 78 72 74 78 77 78 85
65 62 67 71 74 74 83 82 86 85 87 86 80 74 75 74 74 74 75 76 70 64 62 61 61 56 54 53 53 53 49 49 56 34 43 48 63 70 70 74 77 80 86 88
51 53 62 68 75 81 83 81 80 75 79 80 76 74 73 72 72 73 75 77 77 73 69 66 64 60 57 57 53 48 53 51 41 27 48 59 66 78 76 85 86 86 90 99
43 51 57 65 78 82 73 59 56 60 65 67 68 72 70 72 73 72 72 72 74 73 71 68 65 64 62 57 57 58 58 58 62 67 73 68 73 81 89 87 88 92 105 105
39 52 53 62 72 54 38 31 25 35 41 51 57 64 65 69 68 68 67 68 68 68 67 67 65 64 67 62 64 64 66 70 69 74 83 87 89 93 91 96 96 104 103 109
43 50 51 56 24 27 23 13 12 31 22 36 44 50 51 53 54 56 57 55 57 59 58 59 60 59 61 62 65 68 72 74 80 87 88 89 87 91 92 87 95 108 111 104
53 43 39 39 46 42 27 16 10 15 48 50 40 38 40 38 39 40 43 42 44 44 46 50 56 61 62 61 59 59 58 66 75 83 83 86 88 90 90 90 88 90 87 87
35 36 54 51 41 36 43 25 30 60 50 60 53 32 38 43 39 43 43 39 38 39 49 52 54 43 41 45 48 60 63 74 70 69 71 74 76 76 76 75 80 85 87 87
50 58 52 51 50 50 42 36 41 42 58 66 49 62 60 51 46 47 52 56 58 61 64 65 63 65 70 73 77 82 86 82 70 68 70 71 74 75 75 77 81 83 85 82
55 51 49 51 54 56 42 38 47 72 63 71 65 64 55 57 52 50 54 59 61 62 65 67 70 72 78 82 83 92 91 78 71 70 72 72 72 74 74 75 79 77 73 72
41 42 48 51 48 44 41 43 42 48 59 63 69 65 64 46 48 51 52 55 60 62 67 72 80 81 89 89 89 88 79 74 72 72 73 72 69 71 69 68 67 65 64 63
39 54 50 35 33 35 24 17 29 35 46 54 54 50 44 48 50 51 53 60 69 72 75 79 84 88 88 89 88 80 74 68 65 66 66 64 64 62 61 59 58 57 55 54
60 59 49 44 55 47 52 47 46 61 70 70 55 47 44 48 53 56 58 56 61 70 77 83 91 94 93 87 78 74 69 64 61 59 56 55 55 55 53 50 52 51 49 46
47 44 42 51 46 60 64 68 61 53 50 45 40 41 49 51 50 55 59 65 70 74 82 84 84 81 78 73 68 63 59 57 56 55 54 52 50 49 48 47 47 44 44 43
49 45 50 56 52 56 64 67 59 56 56 57 54 54 54 57 58 62 68 74 85 89 97 94 85 77 71 67 64 61 60 57 55 52 48 46 48 47 47 47 44 42 41 43
44 44 47 56 60 56 52 49 44 53 64 62 66 63 63 67 76 76 75 84 92 93 87 76 71 66 61 56 55 53 50 49 48 48 49 50 50 51 47 47 45 42 41 44
39 50 48 49 61 61 62 60 58 59 61 61 63 63 65 69 76 81 84 88 81 73 64 55 52 54 55 56 56 58 57 55 56 58 56 53 53 52 50 48 48 47 43 43
32 41 49 52 50 63 64 64 64 68 66 68 69 72 74 78 84 79 62 55 52 52 53 55 58 61 63 61 58 59 60 61 63 63 62 59 58 56 55 54 52 49 46 45
33 43 44 47 53 55 59 63 65 62 67 71 74 75 68 65 58 59 57 50 51 55 57 60 62 61 57 53 48 44 44 48 55 60 63 63 63 62 61 60 56 50 48 47
39 40 37 42 47 48 43 52 55 50 58 65 57 54 59 53 49 49 52 53 55 57 55 49 46 44 41 38 35 34 33 34 38 43 46 46 47 47 49 50 51 49 48 48
Wind_Direction
239 240 246 246 246 246 241 246 254 259 261 265 265 266 268 267 264 265 262 276 283 290 295 298 304 307 311 313 313 319 319 315 315 310 316 317 324 328 314 323 323 324 323 327
240 238 241 245 245 247 247 245 243 244 256 262 268 265 264 269 269 264 264 266 279 282 282 285 292 293 296 302 303 313 316 314 313 314 315 314 305 312 307 304 311 315 321 327
235 239 237 236 242 243 244 243 242 240 244 249 254 260 264 263 264 269 255 269 276 274 275 278 282 282 291 297 302 308 311 311 313 312 309 307 304 309 312 300 304 306 314 317
235 237 238 235 236 241 242 242 243 239 238 246 253 259 262 264 266 264 262 268 265 274 280 284 286 287 290 294 297 308 305 308 309 311 306 302 299 300 305 300 300 306 305 308
243 236 234 235 235 238 240 238 240 240 238 240 248 254 257 261 264 268 266 265 265 269 276 283 284 285 289 290 299 303 303 310 316 330 316 299 294 294 297 290 290 294 298 306
250 246 236 230 233 236 238 233 239 240 240 241 241 246 252 256 263 263 268 266 266 270 272 276 279 285 287 292 298 300 300 300 317 308 318 308 300 291 289 296 293 293 303 308
247 248 240 226 230 235 237 232 234 238 236 237 240 243 248 254 258 264 260 269 267 267 271 274 274 276 282 291 295 299 305 308 315 318 286 302 290 291 288 292 293 299 302 300
246 246 238 229 229 234 239 239 233 238 238 237 239 240 242 248 255 259 263 265 269 268 269 270 272 275 279 286 291 296 300 301 301 296 281 284 272 275 280 285 295 300 299 297
250 245 235 227 230 235 237 235 236 237 240 242 243 241 243 243 247 254 261 266 262 258 262 265 268 274 279 283 288 289 292 290 295 282 284 260 260 272 279 280 284 292 295 298
243 235 227 225 226 229 233 232 236 238 241 243 245 247 252 254 254 254 255 260 266 271 272 273 276 279 278 277 276 278 277 282 272 263 271 255 256 262 270 276 281 282 287 294
228 227 221 219 222 225 236 238 242 246 246 251 253 255 251 252 255 258 262 266 269 271 273 276 277 277 277 274 270 271 270 265 259 266 269 269 272 272 269 271 279 284 290 289
220 221 214 214 221 228 236 238 230 245 259 256 250 253 255 253 257 262 264 268 273 276 278 279 279 277 277 275 274 273 270 270 268 267 273 275 277 278 276 275 279 285 290 287
203 210 205 211 194 182 183 180 236 248 299 306 264 253 255 257 259 261 264 267 270 272 274 274 273 272 270 271 271 272 276 278 276 279 279 282 280 289 288 283 280 284 289 291
198 192 189 156 137 137 145 132 144 221 265 293 279 256 257 260 258 257 262 264 269 275 277 275 272 271 274 275 278 280 292 296 285 280 283 286 286 286 285 285 287 288 293 297
171 156 146 155 162 156 130 123 110 200 253 267 259 255 262 257 263 260 259 259 263 268 278 285 284 276 282 282 284 293 292 300 293 289 284 282 283 285 289 294 296 300 301 301
141 148 155 161 165 156 131 169 173 197 207 241 233 263 261 243 257 255 263 269 269 272 280 279 279 281 286 288 292 297 302 306 295 290 290 290 293 296 298 300 302 300 299 300
143 150 157 170 171 164 150 160 196 210 216 229 246 244 242 242 253 265 271 271 273 276 280 282 284 287 293 296 299 300 303 302 297 296 295 295 295 296 296 295 292 295 298 301
129 148 135 148 158 146 143 146 171 204 221 238 245 247 245 256 263 264 267 271 275 279 282 287 291 290 293 296 300 302 299 296 294 293 292 293 294 294 294 293 294 296 299 299
140 131 125 123 139 162 193 239 248 245 234 232 237 244 249 248 253 264 275 277 286 290 293 293 293 294 296 297 298 295 292 290 289 288 289 290 289 289 290 291 293 294 295 295
145 143 135 132 146 150 147 169 204 218 232 238 238 244 248 260 268 281 285 295 301 302 299 296 295 295 296 297 296 294 293 292 289 287 287 286 286 287 289 289 290 294 297 307
172 175 162 151 170 184 189 198 215 219 235 245 251 268 270 270 278 284 291 295 297 297 299 300 300 297 297 296 294 293 292 291 290 290 290 289 286 287 286 288 293 300 302 306
180 189 196 202 202 202 200 210 224 234 240 243 251 262 265 275 284 286 286 290 297 297 293 297 296 294 292 291 289 288 287 287 287 287 287 284 286 286 288 291 292 297 294 295
209 214 218 224 223 224 231 233 240 242 245 252 257 263 273 275 272 283 287 296 296 295 295 291 288 288 290 290 288 285 284 285 287 287 286 285 285 285 285 288 290 292 290 287
237 228 230 236 230 233 240 244 248 252 260 262 273 284 287 284 288 290 288 293 293 290 286 286 285 287 289 289 288 286 283 280 282 284 284 282 282 283 284 285 286 290 287 285
255 257 260 246 248 244 247 254 257 264 270 273 278 280 286 281 283 292 292 287 285 286 289 292 293 295 296 294 291 285 280 277 278 278 278 278 278 279 279 280 283 283 280 281
266 262 264 257 257 261 263 265 268 270 270 274 280 283 284 288 288 285 287 286 289 290 292 295 298 300 302 304 300 293 281 273 270 271 274 276 275 274 273 274 276 273 274 275
262 272 278 277 273 271 263 265 268 275 275 274 277 283 282 275 282 282 287 290 291 293 296 297 300 305 307 314 319 308 294 286 282 280 280 279 276 271 264 262 262 263 267 275
Height
10904 10906 10897 10908 10921 10926 10934 10942 10944 10949 10947 10944 10953 10955 10957 10962 10969 10969 10970 10968 10971 10973 10976 10976 10974 10971 10970 10968 10965 10964 10962 10958 10957 10955 10954 10952 10950 10949 10947 10943 10938 10937 10936 10932
10879 10882 10882 10893 10908 10915 10920 10927 10929 10935 10937 10937 10935 10939 10943 10948 10952 10962 10965 10965 10964 10964 10967 10969 10968 10966 10964 10960 10957 10955 10954 10952 10947 10942 10941 10939 10938 10935 10931 10929 10926 10923 10922 10920
10858 10848 10860 10878 10893 10891 10897 10908 10914 10925 10929 10922 10923 10924 10926 10933 10940 10948 10956 10959 10959 10958 10957 10961 10962 10959 10957 10954 10950 10947 10942 10939 10937 10934 10929 10926 10924 10922 10919 10916 10910 10907 10908 10909
10829 10827 10832 10878 10874 10874 10878 10887 10892 10905 10912 10909 10909 10911 10913 10914 10919 10931 10943 10950 10952 10949 10946 10948 10947 10944 10944 10941 10938 10935 10931 10927 10924 10922 10918 10913 10910 10906 10902 10898 10894 10890 10890 10892
10796 10804 10831 10850 10858 10852 10845 10863 10870 10880 10890 10894 10896 10894 10899 10900 10899 10922 10926 10937 10941 10939 10935 10935 10935 10929 10928 10928 10927 10924 10920 10915 10910 10909 10907 10900 10895 10894 10891 10883 10877 10875 10872 10872
10773 10780 10815 10841 10832 10819 10812 10845 10858 10860 10873 10878 10879 10877 10886 10888 10886 10907 10900 10919 10929 10928 10926 10922 10921 10917 10912 10911 10914 10912 10909 10906 10901 10895 10890 10885 10882 10884 10880 10873 10869 10861 10858 10857
10747 10754 10798 10810 10802 10788 10787 10832 10826 10826 10841 10851 10859 10872 10878 10876 10877 10875 10891 10900 10911 10915 10913 10911 10908 10905 10902 10903 10900 10897 10895 10889 10887 10922 10884 10879 10873 10875 10868 10860 10851 10846 10843 10837
10720 10740 10772 10783 10778 10771 10791 10806 10816 10810 10821 10832 10841 10858 10865 10865 10863 10866 10866 10885 10888 10897 10899 10898 10894 10895 10894 10892 10889 10885 10882 10880 10880 10880 10874 10871 10865 10858 10850 10845 10837 10831 10824 10821
10707 10731 10742 10756 10763 10770 10763 10780 10789 10803 10808 10818 10833 10841 10845 10853 10860 10861 10859 10857 10872 10886 10888 10884 10881 10886 10883 10881 10879 10878 10872 10868 10867 10858 10856 10852 10848 10843 10835 10826 10819 10814 10806 10803
10690 10705 10718 10732 10741 10737 10740 10759 10774 10797 10805 10810 10818 10831 10838 10842 10845 10848 10850 10850 10850 10856 10864 10866 10867 10871 10873 10871 10870 10867 10862 10858 10856 10846 10847 10839 10833 10822 10814 10807 10801 10794 10790 10785
10677 10683 10696 10709 10710 10719 10740 10769 10783 10792 10801 10812 10821 10821 10824 10826 10828 10832 10834 10837 10840 10845 10850 10853 10854 10854 10856 10856 10853 10846 10843 10842 10838 10831 10826 10822 10815 10807 10799 10794 10790 10782 10777 10770
10659 10662 10680 10689 10695 10724 10744 10764 10774 10782 10794 10799 10805 10807 10807 10811 10815 10820 10824 10826 10829 10830 10835 10836 10836 10834 10831 10833 10828 10824 10822 10818 10815 10814 10807 10802 10798 10792 10786 10785 10776 10767 10757 10748
10639 10649 10668 10681 10704 10717 10735 10752 10763 10775 10781 10791 10795 10796 10797 10799 10803 10807 10809 10813 10815 10817 10821 10822 10817 10813 10811 10815 10813 10808 10805 10802 10797 10788 10784 10779 10777 10770 10758 10758 10755 10748 10735 10725
10628 10649 10668 10684 10699 10712 10731 10747 10763 10803 10781 10779 10785 10786 10789 10790 10795 10795 10795 10798 10801 10803 10805 10806 10804 10801 10799 10798 10797 10796 10790 10781 10774 10770 10766 10763 10757 10750 10742 10734 10729 10722 10712 10697
10638 10658 10673 10685 10698 10715 10725 10749 10759 10772 10790 10767 10775 10780 10780 10779 10779 10780 10781 10783 10784 10786 10789 10789 10788 10785 10783 10783 10781 10777 10770 10762 10754 10749 10746 10741 10735 10727 10721 10712 10701 10692 10688 10676
10642 10657 10669 10681 10691 10703 10717 10747 10767 10783 10762 10752 10763 10766 10767 10769 10770 10770 10772 10771 10769 10770 10770 10772 10777 10777 10771 10764 10759 10753 10745 10736 10730 10725 10719 10713 10708 10699 10690 10685 10678 10675 10672 10659
10654 10661 10667 10672 10684 10700 10716 10731 10743 10753 10752 10752 10754 10754 10751 10753 10757 10756 10755 10757 10757 10755 10753 10751 10754 10753 10750 10745 10739 10733 10723 10713 10705 10700 10696 10690 10685 10679 10677 10674 10670 10662 10652 10645
10663 10671 10685 10700 10710 10718 10725 10733 10729 10740 10742 10740 10741 10739 10740 10741 10741 10739 10738 10740 10742 10739 10736 10737 10736 10731 10728 10725 10718 10709 10702 10694 10688 10684 10679 10673 10668 10665 10662 10660 10652 10645 10639 10634
10670 10677 10690 10707 10723 10734 10741 10748 10751 10745 10735 10733 10733 10733 10733 10729 10727 10727 10727 10727 10726 10722 10721 10721 10718 10713 10708 10705 10699 10693 10688 10682 10676 10668 10662 10656 10654 10654 10651 10645 10636 10633 10631 10627
10680 10679 10679 10696 10705 10703 10715 10722 10717 10712 10717 10721 10724 10723 10721 10720 10718 10716 10714 10712 10709 10706 10704 10700 10694 10686 10683 10676 10667 10664 10660 10657 10654 10651 10647 10645 10642 10639 10635 10631 10627 10623 10617 10610
10678 10681 10683 10689 10699 10701 10697 10697 10698 10705 10707 10705 10707 10708 10707 10708 10707 10705 10703 10700 10697 10692 10687 10682 10672 10664 10660 10655 10648 10644 10641 10638 10635 10632 10630 10628 10625 10623 10620 10617 10611 10607 10602 10598
10665 10670 10678 10681 10680 10686 10692 10695 10693 10692 10694 10695 10696 10696 10698 10696 10692 10692 10691 10687 10685 10682 10676 10666 10655 10647 10642 10637 10631 10628 10624 10621 10618 10616 10613 10611 10608 10605 10602 10600 10598 10597 10593 10591
10666 10665 10669 10675 10677 10679 10679 10680 10680 10686 10688 10688 10689 10690 10687 10684 10682 10681 10678 10673 10673 10667 10659 10652 10644 10635 10629 10624 10617 10613 10609 10605 10603 10601 10599 10597 10595 10593 10592 10590 10589 10587 10583 10580
10662 10665 10666 10664 10666 10668 10670 10673 10676 10676 10679 10679 10679 10678 10677 10675 10674 10671 10665 10661 10655 10645 10641 10636 10629 10621 10615 10610 10605 10599 10595 10592 10590 10588 10588 10586 10584 10581 10579 10578 10575 10573 10570 10567
10651 10652 10654 10659 10663 10664 10668 10668 10669 10667 10668 10667 10667 10667 10666 10666 10663 10661 10654 10644 10636 10630 10625 10618 10609 10602 10594 10588 10584 10578 10574 10573 10572 10570 10568 10567 10566 10564 10563 10562 10560 10557 10554 10551
10648 10647 10650 10656 10659 10660 10658 10661 10661 10659 10658 10658 10658 10655 10653 10651 10649 10647 10639 10630 10624 10616 10609 10602 10594 10586 10577 10567 10560 10555 10552 10550 10550 10548 10546 10545 10544 10544 10544 10543 10541 10539 10537 10534
10645 10644 10646 10648 10649 10652 10651 10649 10648 10647 10649 10651 10649 10643 10642 10639 10638 10632 10624 10614 10607 10600 10594 10587 10581 10573 10565 10557 10549 10544 10540 10537 10534 10532 10528 10525 10523 10522 10522 10522 10522 10520 10519 10518